CZ-6A DEB, 56660

Orbit data source: Space-Track

CZ-6A DEB, 56660 is space debris in SSO originally from a launch on Fri, 11 Nov 2022 UTC launched from the Taiyaun Space Center, China (TSC). Debris objects in space refer to the collection of defunct objects orbiting the Earth. Examples of debris include non-operational satellites, rocket bodies, and fragments generated from explosions, collisions, or faulty payload assembly.

Loading next visibility...
Identifier
56660, 2022-151AGL
Orbit
SSO
Country
Flag of CNCN / PRC
Related business
Manufacturer
SAST
Mission
Spacecraft
Bus & Motor
Unknown
Mass
Unknown
Launch date (UTC)
2022-11-11 (4 years ago)
Launch vehicle
Unknown
Launch site
Taiyaun Space Center, China (TSC)
Object type
Payload
Rocket body
Debris
Shape & HBR
Unknown shape, 0.1 m
Radar Cross Section
Small (<0.1 m²)

Expand to show TLE details & history
Last TLE update: 1 week ago

TLE from 1 week ago
0 CZ-6A DEB
1 56660U 22151AGL 26166.78250926  .00003783  00000-0  12108-2 0  9999
2 56660  98.6626 189.5114 0105195  95.3265 265.9934 14.37034378164191
Epoch: 2026-06-15T18:46Z
TLE epoch observation values (Epoch: 2026-06-15T18:46:48.800Z)
Latitude
0.00003°
Longitude
3.74411°
Altitude
777.294 km
Speed
7.462 km/s
True Right ascension
12h 38m 02s
True Declination
0° 00' 00"
Sunlit
Object was in daylight at epoch
Visualization orbit readout
Latitude
Unknown
Longitude
Unknown
Altitude
Unknown
Speed
Unknown
Apparent Right ascension
Unknown
Apparent Declination
Unknown
Sunlit
N/A
Visualization observer readout
Local Sidereal Time
21:55:37
Azimuth
Unknown
Elevation
Unknown
Doppler factor
Unknown
Orbital elements
Apogee altitude
840.594 km
Perigee altitude
690.3 km
Semi-major axis
7,143.584 km
Eccentricity
0.01052
Inclination
98.6626°
RAAN
189.5114°
Arg. of periapsis
95.3265°
True anomaly
264.79209°
Mean anomaly
265.9934°
Eccentric anomaly
265.39262°
Mean motion
3.59475 °/min
Orbital period
100.15 mins
BSTAR
0.0012108
Loading maneuver chart data...
Computing Atmospheric mass density...
Loading historical data...
Loading historical data...
Loading historical data...
Loading historical data...
Loading historical data...
Loading historical data...
Loading historical data...

Documentation

Showing up to 5 results
|